Domov               UVHVVR             MKGP            O straneh              
ZDRAVSTVENO VARSTVO RASTLIN
  MREŽA AGROMET. POSTAJ
 ► PROGNOSTIČNA OBVESTILA
AGROMETEOROLOŠKI PODATKI -
ARSO
OBVLADOVANJE TVEGANJ ZARADI
NEUGODNIH VREMENSKIH RAZMER
  ► NARAVNE NESREČE
  ► SUŠA/MOČA
  ► NAMAKANJE
  ► ŽLED (gozdarstvo)
KARTOGRAFSKI PRIKAZI
SPLETNE POVEZAVE
PROJEKTI IN PUBLIKACIJE

AGROMETEOROLOŠKA MREŽA: VREMENSKE POSTAJE IN FENOLOŠKA OPAZOVANJA

Pregled podatkov za lokacijo Tacen, meteorološka postaja 27389

Pregled senzorjev na lokaciji

ID Ime Zadnja
vrednost
Datum
zadnje
spremembe
Tip
senzorja
2222 Padavine (mm) 0,2 mm 12.12.2017 01:00 Generic 0.2 mm
2225 Relativna vlaga 2 m (% RH) 69,62 % RH 12.12.2017 01:00 Generic 0 - 100 %
2226 Temperatura 2 m (°C) 13,09 °C 12.12.2017 01:00 Generic -40 - +60 °C

Pregled podatkov zadnjih 24 ur

Zap.
št.
Datum in čas Tacen
Padavine Relativna
vlaga
2
m
Temperatura
2
m
0 12.12.2017 01:00 0,2 69,62 13,09
1 12.12.2017 00:30 0,4 73,31 12,65
2 12.12.2017 00:00 0,2 69,26 13,85
3 11.12.2017 23:30 0,4 68,52 13,99
4 11.12.2017 23:00 0,4 67,25 14,16
5 11.12.2017 22:30 0,2 68,35 14,04
6 11.12.2017 22:00 0,4 70,99 13,65
7 11.12.2017 21:30 0,4 73,19 13,33
8 11.12.2017 21:00 0,4 72,67 13,46
9 11.12.2017 20:30 0,4 72,87 13,28
10 11.12.2017 20:00 0,4 72,65 13,26
11 11.12.2017 19:30 0,6 72,36 13,31
12 11.12.2017 19:00 0,4 72,65 13,33
13 11.12.2017 18:30 0,6 71,31 13,41
14 11.12.2017 18:00 0,6 70,48 13,48
15 11.12.2017 17:30 0,4 71,18 13,31
16 11.12.2017 17:00 0,8 70,6 13,31
17 11.12.2017 16:30 0,6 72,01 13,09
18 11.12.2017 16:00 0,6 75,29 12,55
19 11.12.2017 15:30 0,8 74,99 12,6
20 11.12.2017 15:00 0,6 75,65 12,45
21 11.12.2017 14:30 0,8 77,92 12,36
22 11.12.2017 14:00 0,8 80,9 12,06
23 11.12.2017 13:30 0,8 82,86 11,84
24 11.12.2017 13:00 1 86,76 11,28
25 11.12.2017 12:30 0,8 88,11 10,96
26 11.12.2017 12:00 1 88,21 10,89
27 11.12.2017 11:30 1 87,57 10,87
28 11.12.2017 11:00 1 89,21 10,43
29 11.12.2017 10:30 1 91,82 9,99
30 11.12.2017 10:00 1 99,29 7,3
31 11.12.2017 09:30 1 99,93 3,81
32 11.12.2017 09:00 1 99,93 3,79
33 11.12.2017 08:30 1 99,93 3,39
34 11.12.2017 08:00 1 99,93 3,32
35 11.12.2017 07:30 1 99,93 4,4
36 11.12.2017 07:00 1,2 99,93 3,91
37 11.12.2017 06:30 1,2 99,93 3,71
38 11.12.2017 06:00 1,4 99,93 4,35
39 11.12.2017 05:30 1,2 99,93 3,49
40 11.12.2017 05:00 1,4 99,93 2,78
41 11.12.2017 04:30 1,6 99,93 2
42 11.12.2017 04:00 1,4 99,93 1,9
43 11.12.2017 03:30 2 99,93 2,03
44 11.12.2017 03:00 2,2 99,93 2,05
45 11.12.2017 02:30 1,8 99,93 2,37
46 11.12.2017 02:00 0,4 99,73 2,15
© 2011 Ministrstvo za kmetijstvo, gozdarstvo in prehrano. Vse pravice pridržane.